{"data":{"norad_id":65638,"intl_designator":"2025-210S","name":"STARLINK-35213","alt_names":[],"object_type":"PAYLOAD","status":"ACTIVE","operator":null,"country":"US","launch_date":"2025-09-18","launch_site_code":"AFETR","launch_vehicle":null,"mission":null,"orbit_class":"UNKNOWN","rcs_meters":null,"size_class":null,"mass_kg":null,"dimensions":null,"purposes":["comms"],"wikipedia_slug":null,"has_3d_model":false,"image_url":null,"decayed_at":null,"tle_current":{"epoch":"2026-09-20T21:51:02.225952Z","epoch_age_seconds":73273,"freshness":"FRESH","line1":"1 65638U 25210S   26263.91044243  .00025223  00000+0  75472-3 0  9995","line2":"2 65638  53.1572 115.8124 0001334  49.5769 310.5350 15.34416605 57684","mean_motion":15.34416605,"eccentricity":0.0001334,"inclination_deg":53.1572,"raan_deg":115.8124,"arg_perigee_deg":49.5769,"mean_anomaly_deg":310.535,"bstar":0.00075472,"rev_number":5768,"period_min":93.846742488817,"perigee_km":461.7413255885,"apogee_km":463.56644859717,"semimajor_km":6840.7908870928,"source":"CELESTRAK","updated_at":"2026-09-21T09:00:35.676083Z"}}}